ATLAS 5 CENTAUR R/B (45984 NORAD) Tracking and Keplerian Element Data

This shows tracking and keplerian element data for the satellite.

Feedback or suggestion? Click here.




ElementValue
Catalog45984
NameATLAS 5 CENTAUR R/B
Epoch Orbit0
Epoch Day212.57736904
Epoch Year2020
RAAN332.3922
Inclination69.7373
Eccentricity0.0065
Argument of Perigee250.3442
Mean Anonmoly134.2527
Mean Motion2.66257239
Decay Rate-6.2E-07
L11 45984U 20052B 20212.57736904 -.00000062 00000-0 00000+0 0 9995
L22 45984 69.7373 332.3922 0065000 250.3442 134.2527 2.66257239 08

Live tracking and technical data element details for ATLAS 5 CENTAUR R/B (NORAD 45984). ATLAS 5 CENTAUR R/B can be tracked NOW for your location showing map with azimuth and elevation plus other details from your city location.

Track the satellite on the map from your city or location and see movement details for azimuth, elevation, latitude, longitude, range, height, and movement on the map or in text.







IsCatalogInMostPopularTable: catalog: 45984, numindb: 22
Update: records affected: 1



GetName: 45984 ATLAS 5 CENTAUR R/B

Hit Count: updated at: Thu, 03 Dec 2020 08:02:31 GMT